Location: Bamobli
(6.6379°N, 10.9396°W)
Time: 21:32:00
(UTC+00:00)

N. Korean satellite - Pass Details

Date: 09 March 2021
Orbit: 453 x 499 km, 97.2° (Epoch: 12 April)

Event Time Altitude Azimuth Distance (km) Brightness Sun altitude
Rises 06:00:50 0° 3° (N) 2,555 10.2 -13.8°
Reaches altitude 10° 06:02:56 10° 358° (N) 1,681 9.2 -13.2°
Maximum altitude 06:06:27 51° 282° (WNW) 631 6.7 -12.4°
Drops below altitude 10° 06:10:01 10° 205° (SSW) 1,698 9.1 -11.5°
Sets 06:12:08 0° 200° (SSW) 2,583 10.1 -11.0°
